TimeWEST,TemperatureF,Dew PointF,Humidity,Sea Level PressureIn,VisibilityMPH,Wind Direction,Wind SpeedMPH,Gust SpeedMPH,PrecipitationIn,Events,Conditions,WindDirDegrees,DateUTC
12:00 AM,62.6,55.4,77,29.89,-9999.0,SSW,6.9,-,N/A,,Unknown,200,2013-05-14 23:00:00
1:00 AM,61,55,76,29.88,,South,4.6,,,,,190,2013-05-15 00:00:00
1:00 AM,60.8,55.4,82,29.86,-9999.0,South,4.6,-,N/A,,Unknown,190,2013-05-15 00:00:00
2:00 AM,59.0,53.6,82,29.86,-9999.0,SSW,2.3,-,N/A,,Unknown,200,2013-05-15 01:00:00
3:00 AM,59.0,53.6,82,29.83,6.2,Calm,Calm,-,N/A,,Scattered Clouds,0,2013-05-15 02:00:00
4:00 AM,58,54,81,29.83,6,Calm,Calm,,,,Partly Cloudy,,2013-05-15 03:00:00
4:00 AM,57.2,53.6,88,29.83,6.2,Calm,Calm,-,N/A,,Scattered Clouds,0,2013-05-15 03:00:00
5:00 AM,55.4,51.8,88,29.80,-9999.0,Calm,Calm,-,N/A,,Unknown,0,2013-05-15 04:00:00
6:00 AM,57.2,51.8,82,29.80,-9999.0,Calm,Calm,-,N/A,,Unknown,0,2013-05-15 05:00:00
7:00 AM,56,51,80,29.81,6,Calm,Calm,,,,,,2013-05-15 06:00:00
7:00 AM,57.2,51.8,82,29.80,-9999.0,Calm,Calm,-,N/A,,Clear,0,2013-05-15 06:00:00
8:00 AM,59.0,53.6,82,29.80,-9999.0,Calm,Calm,-,N/A,,Clear,0,2013-05-15 07:00:00
9:00 AM,66.2,53.6,64,29.80,6.2,Calm,Calm,-,N/A,,Partly Cloudy,0,2013-05-15 08:00:00
10:00 AM,67,53,51,29.82,6,WNW,3.5,,,,,290,2013-05-15 09:00:00
10:00 AM,68.0,53.6,60,29.80,-9999.0,WNW,3.5,-,N/A,,Clear,290,2013-05-15 09:00:00
11:00 AM,71.6,53.6,53,29.80,-9999.0,West,10.4,-,N/A,,Clear,260,2013-05-15 10:00:00
12:00 PM,75.2,50.0,41,29.80,-9999.0,West,12.7,-,N/A,,Clear,270,2013-05-15 11:00:00
1:00 PM,76,51,31,29.79,6,West,23.0,,,,,270,2013-05-15 12:00:00
1:00 PM,75.2,51.8,44,29.80,-9999.0,West,23.0,-,N/A,,Clear,270,2013-05-15 12:00:00
2:00 PM,75.2,53.6,47,29.77,-9999.0,West,23.0,-,N/A,,Clear,270,2013-05-15 13:00:00
3:00 PM,73.4,53.6,50,29.77,5.0,West,25.3,-,N/A,,Unknown,270,2013-05-15 14:00:00
4:00 PM,74,50,32,29.76,6,West,27.6,,,,,270,2013-05-15 15:00:00
4:00 PM,73.4,50.0,44,29.77,6.2,West,27.6,-,N/A,,Unknown,270,2013-05-15 15:00:00
5:00 PM,73.4,50.0,44,29.77,5.0,West,28.8,-,N/A,,Unknown,270,2013-05-15 16:00:00
6:00 PM,71.6,48.2,43,29.74,5.0,West,28.8,-,N/A,,Unknown,270,2013-05-15 17:00:00
7:00 PM,68,50,42,29.76,6,West,27.6,,,,,270,2013-05-15 18:00:00
7:00 PM,68.0,50.0,52,29.74,6.2,West,27.6,40.3,N/A,,Unknown,270,2013-05-15 18:00:00
8:00 PM,64.4,50.0,59,29.77,6.2,West,20.7,-,N/A,,Unknown,270,2013-05-15 19:00:00
9:00 PM,62.6,48.2,59,29.77,-9999.0,West,17.3,-,N/A,,Clear,260,2013-05-15 20:00:00
10:00 PM,62,49,53,29.80,6,WSW,12.7,,,,Scattered Clouds,240,2013-05-15 21:00:00
10:00 PM,62.6,50.0,63,29.80,-9999.0,WSW,12.7,-,N/A,,Clear,240,2013-05-15 21:00:00
11:00 PM,62.6,50.0,63,29.80,-9999.0,WSW,9.2,-,N/A,,Clear,240,2013-05-15 22:00:00